Location: Hains Lake
(37.8540°N, 99.8578°W)
Time: 22:28:54
(UTC+00:00)

deb Explorer IX - Pass Details

Date: 25 April 2021
Orbit: 541 x 1098 km, 38.8° (Epoch: 13 May)

Event Time Altitude Azimuth Distance (km) Brightness Sun altitude
Rises 14:11:55 0° 278° (W) 2,707 ? 26.7°
Reaches altitude 10° 14:14:05 10° 279° (W) 1,841 ? 27.2°
Maximum altitude 14:18:16 84° 8° (N) 601 ? 28.0°
Drops below altitude 10° 14:22:58 10° 96° (E) 2,057 ? 28.9°
Sets 14:25:30 0° 97° (E) 3,057 ? 29.4°
